sat.trackr.live / text

‹ back to catalog

STARLINK-6290

NORAD 57328 · 2023-099A

PAYLOAD ACTIVE UNKNOWN

§ Identity

Operator
Country
US
Launch date
2023-07-16
Launch site
AFETR
Launch vehicle
Mass (kg)
RCS (m²)

Purposes: comms

External: N2YO · Heavens-Above · Gunter

§ Orbital elements

Epoch: 2026-05-25T03:35:11.202144Z

Period
94.27 min
Inclination
43.0035°
Eccentricity
0.0001942
Mean motion
15.27547716 rev/d
Perigee alt
481.8 km
Apogee alt
484.5 km
Semi-major
6,861.3 km
B*
-1.1890e-4
RAAN
180.2842°
Arg perigee
291.5060°
Mean anomaly
68.5585°
Rev number
15,868

§ Raw data

STARLINK-62901 57328U 23099A   26145.14943521 -.00003530  00000+0 -11890-3 0  99992 57328  43.0035 180.2842 0001942 291.5060  68.5585 15.27547716158686

JSON: /api/v1/satellites/57328 · /tle

For live sub-satellite position, see the globe view (requires WebGL).

§ Visibility from observer

Set your observer location to see the next 7 days of passes ≥ 10°. The values pass through the URL so the page stays shareable.

No JS? Fill the form by hand. The geolocation button needs JavaScript.